This is the latest recevied weather packets stored in our database for station/object K3TLB-13. If no packets are shown the sender has not sent any weather packets the latest 10 day(s).
| Time | Temp. | Humidity | Pressure | Rain* | Wind** | Luminosity | Snow |
|---|---|---|---|---|---|---|---|
| 1778213334 | 12.78° C | 45% | 1011.7 hPa | 0 mm | - | - | - |
| 1778213033 | 12.22° C | 46% | 1011.7 hPa | 0 mm | - | - | - |
| 1778212733 | 12.22° C | 47% | 1011.6 hPa | 0 mm | - | - | - |
| 1778212434 | 12.78° C | 45% | 1011.6 hPa | 0 mm | - | - | - |
| 1778212133 | 12.78° C | 45% | 1011.5 hPa | 0 mm | - | - | - |
| 1778211833 | 12.78° C | 45% | 1011.3 hPa | 0 mm | - | - | - |
| 1778211533 | 12.78° C | 44% | 1011.3 hPa | 0 mm | - | - | - |
| 1778211234 | 12.78° C | 44% | 1011.2 hPa | 0 mm | - | - | - |
| 1778210933 | 12.78° C | 43% | 1011.3 hPa | 0 mm | - | - | - |
| 1778210633 | 13.33° C | 43% | 1011.2 hPa | 0 mm | - | - | - |
| 1778210334 | 13.33° C | 44% | 1011.2 hPa | 0 mm | - | - | - |
| 1778210033 | 13.33° C | 44% | 1011.2 hPa | 0 mm | - | - | - |
| 1778209733 | 13.33° C | 45% | 1011.1 hPa | 0 mm | - | - | - |
| 1778209433 | 13.33° C | 44% | 1011.1 hPa | 0 mm | - | - | - |
| 1778209133 | 13.33° C | 45% | 1011.1 hPa | 0 mm | - | - | - |
| 1778208833 | 13.33° C | 45% | 1011 hPa | 0 mm | - | - | - |
| 1778208534 | 13.33° C | 46% | 1010.9 hPa | 0 mm | - | - | - |
| 1778208273 | 13.33° C | 45% | 1011 hPa | 0 mm | - | - | - |
| 1778208234 | 13.33° C | 45% | 1011 hPa | 0 mm | - | - | - |
| 1778207934 | 13.33° C | 45% | 1011 hPa | 0 mm | - | - | - |
| 1778207634 | 13.89° C | 45% | 1010.9 hPa | 0 mm | - | - | - |
| 1778207333 | 13.89° C | 44% | 1010.9 hPa | 0 mm | - | - | - |
| 1778207034 | 13.89° C | 45% | 1010.9 hPa | 0 mm | - | - | - |
| 1778206734 | 13.33° C | 45% | 1010.8 hPa | 0 mm | - | - | - |
| 1778206637 | 13.33° C | 46% | 1010.8 hPa | 0 mm | - | - | - |
* Rain latest hour (hover to see other rain measurements)
** Current wind speed in m/s (hover to see current wind gust speed)